Cherry Point, NC

11:32 PM EDT on March 22, 2017 (GMT -0400)
Cherry Point Marine Corps Air Station

Weather History for KNKT - November, 2012

Change the Weather History Date:

Sunday, November 11, 2012

  Actual Average Record
Temperature  
Mean Temperature 58 °F -  
Max Temperature 73 °F 63 °F 81 °F (2002)
Min Temperature 42 °F 43 °F 34 °F (1996)
Degree Days  
Heating Degree Days 8    
Growing Degree Days 8 (Base 50)    
Moisture  
Dew Point 47 °F    
Average Humidity 78    
Maximum Humidity 93    
Minimum Humidity 45    
Precipitation  
Precipitation 0.00 in - - ()
Sea Level Pressure  
Sea Level Pressure 30.45 in    
Wind  
Wind Speed 1 mph ()    
Max Wind Speed 8 mph    
Max Gust Speed -    
Visibility 7.8 miles    
Events Fog    
Averages and records for this station are not official NWS values.
T = Trace of Precipitation, MM = Missing Value Source: Averaged Metar Reports

Daily Weather History Graph

Daily Weather History Graph

Search for Another Location

Airport or City:

Trip Planner

Search our weather history database for the weather conditions in past years. The results will help you decide how hot, cold, wet, or windy it might be!

Date:

Astronomy

Nov. 11, 2012 Rise Set
Actual Time 6:38 AM EST 5:04 PM EST
Civil Twilight 6:11 AM EST 5:31 PM EST
Nautical Twilight 5:41 AM EST 6:01 PM EST
Astronomical Twilight 5:11 AM EST 6:31 PM EST
Moon 3:54 AM EST (11/11) 3:22 PM EST (11/11)
Length of Visible Light 11h 19m
Length of Day
10h 26m
Waning Crescent, 7% of the Moon is Illuminated
Nov 11
Waning Crescent
Nov 13
New
Nov 20
First Quarter
Nov 28
Full
Dec 6
Last Quarter

Hourly Weather History & Observations

Time (EST) Temp. Dew Point Humidity Pressure Visibility Wind Dir Wind Speed Gust Speed Precip Events Conditions
12:44 AM 44.6 °F 41.0 °F 87% 30.42 in 2.5 mi Calm Calm - N/A   Partly Cloudy
12:54 AM 44.1 °F 41.0 °F 89% 30.41 in 7.0 mi Calm Calm - N/A   Clear
1:54 AM 45.0 °F 43.0 °F 93% 30.42 in 7.0 mi Calm Calm - N/A   Clear
2:18 AM 44.6 °F 41.0 °F 87% 30.43 in 0.5 mi Calm Calm - N/A Fog Fog
2:37 AM 44.6 °F 39.2 °F 81% 30.43 in 0.8 mi Calm Calm - N/A   Mist
2:54 AM 44.1 °F 41.0 °F 89% 30.42 in 0.8 mi Calm Calm - N/A   Mist
3:01 AM 44.6 °F 41.0 °F 87% 30.43 in 8.0 mi Calm Calm - N/A   Mostly Cloudy
3:54 AM 43.0 °F 39.0 °F 86% 30.42 in 7.0 mi Calm Calm - N/A   Overcast
4:13 AM 42.8 °F 39.2 °F 87% 30.44 in 5.0 mi Calm Calm - N/A   Scattered Clouds
4:54 AM 43.0 °F 39.0 °F 86% 30.43 in 9.0 mi Calm Calm - N/A   Clear
5:35 AM 42.8 °F 39.2 °F 87% 30.45 in 10.0 mi Calm Calm - N/A   Partly Cloudy
5:54 AM 43.0 °F 39.0 °F 86% 30.45 in 9.0 mi Calm Calm - N/A   Partly Cloudy
6:54 AM 43.0 °F 39.0 °F 86% 30.47 in 8.0 mi Calm Calm - N/A   Clear
7:54 AM 50.0 °F 46.9 °F 89% 30.49 in 4.0 mi Calm Calm - N/A   Scattered Clouds
8:54 AM 57.0 °F 51.1 °F 81% 30.50 in 10.0 mi NE 3.5 mph - N/A   Scattered Clouds
9:54 AM 64.0 °F 53.1 °F 67% 30.51 in 10.0 mi NE 3.5 mph - N/A   Clear
10:54 AM 70.0 °F 52.0 °F 53% 30.50 in 10.0 mi NNE 3.5 mph - N/A   Clear
11:54 AM 71.1 °F 51.1 °F 49% 30.48 in 10.0 mi Variable 3.5 mph - N/A   Scattered Clouds
12:54 PM 73.9 °F 52.0 °F 46% 30.46 in 10.0 mi Calm Calm - N/A   Partly Cloudy
1:54 PM 73.9 °F 51.1 °F 45% 30.44 in 10.0 mi Variable 3.5 mph - N/A   Partly Cloudy
2:54 PM 71.1 °F 52.0 °F 51% 30.44 in 10.0 mi ENE 8.1 mph - N/A   Partly Cloudy
3:54 PM 68.0 °F 52.0 °F 56% 30.45 in 10.0 mi East 5.8 mph - N/A   Scattered Clouds
4:54 PM 64.9 °F 53.1 °F 65% 30.46 in 10.0 mi East 4.6 mph - N/A   Partly Cloudy
5:54 PM 61.0 °F 54.0 °F 78% 30.46 in 10.0 mi ESE 3.5 mph - N/A   Clear
6:54 PM 59.0 °F 54.0 °F 83% 30.47 in 10.0 mi ESE 4.6 mph - N/A   Clear
7:54 PM 57.0 °F 53.1 °F 87% 30.47 in 10.0 mi East 3.5 mph - N/A   Clear
8:54 PM 57.0 °F 52.0 °F 83% 30.47 in 10.0 mi Calm Calm - N/A   Clear
9:54 PM 55.0 °F 52.0 °F 89% 30.47 in 8.0 mi Calm Calm - N/A   Clear
10:54 PM 54.0 °F 50.0 °F 86% 30.47 in 8.0 mi Calm Calm - N/A   Clear
11:54 PM 53.1 °F 50.0 °F 89% 30.46 in 8.0 mi Calm Calm - N/A   Scattered Clouds